Time,B instrument,Bx,By,Bz,sigma B,Ion instrument,Status,Tp_par,Tp_perp,carrot,r_sun,clat,clong,earth_he_angle,n_p,vp_x,vp_y,vp_z,vth_p_par,vth_p_perp
1980-07-13 01:23:54,-1,nan,nan,nan,nan,1,4,nan,nan,1696,0.77901345,4.5090704,9.8864746,106.38257,nan,nan,nan,nan,nan,nan
1980-07-13 01:28:24,-1,nan,nan,nan,nan,1,3,nan,nan,1697,0.77907872,4.4531755,9.7801514,106.31531,nan,411.771,23.1778,-25.7331,nan,nan
1980-07-13 01:29:18,-1,nan,nan,nan,nan,1,4,nan,nan,1696,0.77904898,4.5086136,9.840271,106.38324,nan,nan,nan,nan,nan,nan
1980-07-13 01:31:06,1,4.46667,-2.03333,6.16667,0.33665,1,1,78731.0,67160.1,1696,0.77906084,4.508461,9.8209839,106.38347,4.30818,404.364,19.5449,-14.5515,36.0521,33.2976
1980-07-13 01:33:48,1,4.7,-1.93333,6.4,0.262467,1,1,66105.6,75703.7,1696,0.7790727,4.5083084,9.79776,106.38368,4.52463,402.961,18.9102,-22.0737,33.0352,35.3522
1980-07-13 01:36:30,1,4.76667,-1.63333,6.8,0.278887,1,1,62000.5,69247.1,1696,0.77909046,4.5080805,9.7746582,106.38402,4.64904,399.818,15.622,-21.844,31.993,33.811
1980-07-13 01:39:14,1,4.95,-0.8,6.6,0.206155,1,1,81077.8,64120.8,1696,0.77910823,4.5078516,9.7476501,106.38435,4.6838,406.506,18.4249,-20.9784,36.5855,32.5355
1980-07-13 01:41:56,1,4.2,-1.05,7.625,0.253722,1,1,72004.8,67759.9,1696,0.77912009,4.507699,9.7244263,106.38458,4.33722,409.064,17.2546,-26.9852,34.4777,33.446
1980-07-13 01:44:38,1,4.03333,-1.96667,6.73333,0.64291,1,1,75442.2,73641.1,1696,0.77913785,4.5074701,9.6974182,106.38492,4.54452,403.882,16.8193,-23.3495,35.2911,34.8673
1980-07-13 01:47:20,1,3.6,-4.0,5.03333,0.188562,1,1,109746.0,52775.9,1696,0.77915561,4.5072412,9.6743164,106.38525,4.59962,414.15,23.2708,-12.8042,42.565,29.5172
1980-07-13 01:50:02,1,3.93333,-3.6,5.83333,0.24037,1,1,95086.7,71350.2,1696,0.77917343,4.5070133,9.6512146,106.38559,5.04096,408.451,19.8743,-17.484,39.6203,34.3206
1980-07-13 01:52:44,1,4.15,-3.15,6.6,0.447214,1,1,83603.3,64687.0,1696,0.77918524,4.5068607,9.6240845,106.3858,4.88018,412.595,16.2521,-24.047,37.1509,32.6788
1980-07-13 01:55:26,1,4.6,-2.625,6.6,0.34187,1,1,94510.4,67378.8,1696,0.77920306,4.5066319,9.6009827,106.38614,4.84808,404.868,17.0914,-21.542,39.5001,33.3518
1980-07-13 01:58:08,1,3.925,-3.575,6.425,0.510514,1,1,71701.1,72828.5,1696,0.77922082,4.506403,9.5778809,106.38647,5.1704,405.109,29.1339,-16.0883,34.4049,34.6744
1980-07-13 02:00:50,1,3.3,-2.8,7.6,0.273861,1,1,89399.8,67295.2,1696,0.77923268,4.5062504,9.5507813,106.3867,5.01815,414.499,22.4882,-25.7677,38.4172,33.3311
1980-07-13 02:03:32,1,3.025,-3.45,7.4,0.156125,1,1,91008.9,55434.3,1696,0.77925038,4.5060225,9.5276489,106.38702,4.6886,414.995,27.1974,-22.6711,38.7614,30.2515
1980-07-13 02:06:14,1,3.675,-2.825,7.55,1.05653,1,1,72923.4,67191.1,1696,0.77926815,4.5057936,9.5045471,106.38736,4.896,412.685,32.6363,-19.7195,34.697,33.3053
1980-07-13 02:08:56,1,4.76667,-2.06667,7.33333,0.270801,1,1,70695.6,65361.9,1696,0.77928001,4.505641,9.4774475,106.38759,4.37235,405.125,16.1987,-25.6148,34.1628,32.8489
1980-07-13 02:11:38,1,4.56667,-1.86667,7.63333,0.216025,1,1,70779.3,60993.1,1696,0.77929777,4.5054121,9.4543152,106.38791,4.37455,405.176,21.4361,-24.8947,34.1831,31.7321
1980-07-13 02:14:20,1,4.7,-2.45,7.2,0.269258,1,1,72241.1,57944.8,1696,0.77931547,4.5051832,9.4312134,106.38824,4.16622,402.979,22.0918,-21.0746,34.5343,30.929
1980-07-13 02:17:02,1,3.2,-2.875,8.2,0.238485,1,1,84182.8,69579.4,1696,0.77933323,4.5049543,9.4042053,106.38858,5.12839,405.251,28.4419,-22.5776,37.2794,33.8921
1980-07-13 02:19:44,1,3.75,-3.25,7.425,0.34187,1,1,91137.8,67817.3,1696,0.7793451,4.5048018,9.381012,106.38881,5.12203,410.986,28.3172,-23.3128,38.7889,33.4602
1980-07-13 02:22:26,1,4.0,-3.125,7.2,0.277263,1,1,79542.9,66304.6,1696,0.77936286,4.5045729,9.3539734,106.38913,4.77309,405.744,25.4375,-20.9203,36.2375,33.0849
1980-07-13 02:25:08,1,4.675,-1.625,7.7,0.297909,1,1,57063.4,66857.0,1696,0.77938062,4.504344,9.3308716,106.38947,4.90761,401.153,17.5441,-18.3989,30.6928,33.2224
1980-07-13 02:27:50,1,4.9,-1.7,6.8,0.0,1,1,68404.9,67463.3,1696,0.77939242,4.5041914,9.3076782,106.38969,5.07897,402.748,19.244,-19.2964,33.6048,33.3727
1980-07-13 02:30:32,1,5.33333,-1.23333,6.83333,0.34641,1,1,91892.8,62526.0,1696,0.77941018,4.5039625,9.2806702,106.39003,5.19331,401.864,17.0109,-15.8112,38.9492,32.1283
1980-07-13 02:33:14,1,5.4,-0.733333,6.83333,0.278887,1,1,91054.6,59555.6,1696,0.77942795,4.5037336,9.2575378,106.39035,4.76303,402.164,14.7958,-15.4071,38.7712,31.3559
1980-07-13 02:35:56,1,4.7,-1.9,7.4,0.273861,1,1,88105.3,50064.3,1696,0.77943981,4.503581,9.2343445,106.39058,4.42407,407.323,23.5376,-18.1179,38.1381,28.7489
1980-07-13 02:38:38,1,4.7,-0.05,8.3,0.259808,1,1,74853.9,55673.0,1696,0.77945751,4.5033522,9.2073364,106.39091,3.98855,403.671,9.72271,-22.4888,35.1532,30.3166
1980-07-13 02:41:20,1,4.45,1.6,7.7,0.35,1,1,58659.0,58867.7,1696,0.77947527,4.5031233,9.1842041,106.39124,4.08307,402.013,7.28243,-24.9763,31.119,31.1743
1980-07-13 02:44:02,1,4.175,-0.625,8.025,0.436606,1,1,83194.6,66470.9,1696,0.77949303,4.5028944,9.1611023,106.39157,4.25243,404.578,19.0936,-25.0942,37.06,33.1264
1980-07-13 02:46:44,1,4.275,-1.225,7.75,0.579871,1,1,77196.5,68226.8,1696,0.7795049,4.5027418,9.1340027,106.3918,4.93535,399.173,18.4937,-25.1097,35.699,33.561
1980-07-13 02:49:26,1,5.2,0.166667,7.26667,0.527046,1,1,99129.1,58093.8,1696,0.7795226,4.5025129,9.1109009,106.39214,4.93933,401.389,9.51466,-18.6413,40.4537,30.9687
1980-07-13 02:52:08,1,4.43333,-2.1,7.23333,1.06354,1,1,76872.7,62011.5,1696,0.77954036,4.502284,9.0877686,106.39246,4.45638,398.454,6.47888,-23.6932,35.6241,31.9959
1980-07-13 02:54:50,1,2.8,-3.45,7.95,0.447214,1,1,71431.2,52628.3,1696,0.77955222,4.5021315,9.0606689,106.39268,4.50484,423.642,38.3399,-24.3786,34.3401,29.4759
1980-07-13 02:57:32,1,2.975,-2.55,8.425,0.443001,1,1,74287.9,56918.4,1696,0.77956998,4.5019026,9.0375671,106.39302,4.09496,417.06,24.6089,-29.8625,35.0201,30.6538
1980-07-13 03:00:14,1,4.225,-1.925,7.275,0.840015,1,1,70414.0,59156.2,1696,0.77958775,4.5016747,9.0144653,106.39336,4.0505,409.409,25.4958,-22.2681,34.0948,31.2506
1980-07-13 03:02:56,1,4.475,-1.9,7.45,0.290474,1,1,116307.0,54811.0,1696,0.77959955,4.5015221,8.9873352,106.39357,4.83965,407.679,21.0991,-18.3114,43.8189,30.081
1980-07-13 03:05:38,1,5.125,-0.325,7.125,0.332603,1,1,79086.4,63601.7,1696,0.77961731,4.5012932,8.9642334,106.39391,4.63855,404.258,14.8139,-20.3325,36.1334,32.4035
1980-07-13 03:08:20,1,5.7,0.425,6.375,0.456892,1,1,89594.4,72518.9,1696,0.77963501,4.5010653,8.9371948,106.39423,4.89102,400.214,-0.940266,-12.4761,38.459,34.6006
1980-07-13 03:11:02,1,6.2,0.266667,4.6,0.169967,1,1,68535.9,58087.5,1696,0.77965277,4.5008364,8.914093,106.39456,4.77199,393.167,7.10583,0.18846,33.637,30.967
1980-07-13 03:13:44,1,2.66667,-3.16667,6.5,0.551765,1,1,142551.0,82417.3,1696,0.77966458,4.5006838,8.8908691,106.39478,4.75292,423.483,34.1784,-12.0829,48.5112,36.8865
1980-07-13 03:16:26,1,3.5,-1.025,6.675,1.53745,1,1,76777.2,58322.7,1696,0.77968234,4.5004559,8.8638611,106.39511,3.61246,394.382,-13.2309,4.38322,35.602,31.0296
1980-07-13 03:19:08,1,0.85,-2.7,6.925,0.542563,1,1,109173.0,117733.0,1696,0.77970004,4.500227,8.8407593,106.39545,5.73482,440.369,39.2926,-22.5259,42.4537,44.0867
1980-07-13 03:21:50,1,-0.475,-3.525,7.15,0.852203,1,1,105391.0,84585.0,1696,0.7797119,4.5000753,8.8175354,106.39566,5.31366,437.318,34.3877,-18.4016,41.7118,37.3684
1980-07-13 03:24:32,1,0.45,-2.35,8.425,0.277263,1,1,71777.4,45733.1,1696,0.7797296,4.4998465,8.7905273,106.396,3.64675,434.712,23.2984,-25.9449,34.4232,27.4773
1980-07-13 03:27:14,1,0.95,-1.775,8.5,0.386491,1,1,56857.3,55876.1,1696,0.77974737,4.4996185,8.7674255,106.39632,3.91173,429.052,15.9096,-26.1054,30.6373,30.3718
1980-07-13 03:29:56,1,0.725,-1.75,8.5,0.468375,1,1,69378.0,60977.4,1696,0.77975917,4.4994659,8.7442017,106.39655,4.49344,433.575,24.9006,-24.5818,33.843,31.728
1980-07-13 03:32:38,1,0.966667,-2.06667,9.16667,0.627163,1,1,53772.1,61781.6,1696,0.77977693,4.4992371,8.7171936,106.39687,4.03619,427.073,20.4365,-29.1125,29.7945,31.9365
1980-07-13 03:35:20,1,0.8,-1.75,9.2,0.433013,1,1,56768.9,49672.0,1696,0.77979469,4.4990091,8.6940918,106.3972,3.88222,430.091,16.0892,-29.5909,30.6135,28.6361
1980-07-13 03:38:02,1,-0.075,-0.95,9.7,0.156125,1,1,62095.7,56164.9,1696,0.7798124,4.4987803,8.67099,106.39754,3.86243,441.805,11.3417,-32.0522,32.0176,30.4502
1980-07-13 03:40:44,1,0.75,-0.025,9.6,0.263391,1,1,67719.6,53435.6,1696,0.77982426,4.4986286,8.6438599,106.39775,4.239,435.094,8.39578,-31.2997,33.4361,29.7012
1980-07-13 03:43:26,1,1.575,0.35,9.4,0.290474,1,1,57261.4,79202.5,1696,0.77984196,4.4983997,8.6207581,106.39809,4.92425,422.124,2.71622,-29.6643,30.746,36.1599
1980-07-13 03:46:08,1,0.85,-0.325,9.275,0.443001,1,1,70834.8,61072.3,1696,0.77985972,4.4981709,8.5976257,106.39841,3.96572,431.309,13.7382,-29.5132,34.1965,31.7526
1980-07-13 03:48:50,1,6.15,-2.075,3.875,0.162019,1,1,58289.5,57535.2,1696,0.77987152,4.4980192,8.5705261,106.39864,4.27534,396.029,18.6786,-6.22202,31.0208,30.8194
1980-07-13 03:51:32,1,5.8,-2.1,4.4,0.173205,1,1,86794.1,65765.8,1696,0.77988929,4.4977903,8.5474243,106.39897,4.87432,395.07,18.8257,-9.30479,37.8532,32.9502
1980-07-13 03:54:14,1,3.93333,-2.6,7.26667,0.362093,1,1,81078.1,67561.9,1696,0.77990699,4.4975624,8.5203857,106.39929,4.95348,415.379,20.4456,-29.7527,36.5855,33.3971
1980-07-13 03:56:56,1,5.4,-2.9,4.63333,0.319722,1,1,76786.6,60224.3,1696,0.77991885,4.4974098,8.4971924,106.39952,4.67422,398.094,19.9512,-6.62954,35.6042,31.5314
1980-07-13 03:59:38,1,3.33333,-4.53333,4.16667,0.52915,1,1,69220.2,55204.9,1696,0.77993655,4.4971809,8.4740601,106.39984,4.98668,413.383,41.7265,-6.717,33.8045,30.1889
1980-07-13 04:02:20,1,5.025,-2.7,5.3,0.438035,1,1,85811.0,53251.4,1696,0.77995431,4.496953,8.447052,106.40018,4.56244,400.364,23.9305,-4.12402,37.6383,29.6499
1980-07-13 04:05:02,1,5.575,-2.0,3.9,0.369966,1,1,79815.9,64946.7,1696,0.77997202,4.4967241,8.4239502,106.4005,4.89241,394.608,23.7269,-9.85517,36.2997,32.7443
1980-07-13 04:07:44,1,6.175,-2.7,3.55,0.352668,1,1,62681.7,54437.5,1696,0.77998382,4.4965715,8.4007263,106.40073,4.65821,390.927,23.6867,-1.52312,32.1683,29.9783
1980-07-13 04:10:26,1,6.2,-2.35,4.025,0.298957,1,1,69772.2,59309.0,1696,0.78000158,4.4963427,8.3737183,106.40105,5.02508,389.419,23.8167,-4.81462,33.939,31.2909
1980-07-13 04:13:08,1,6.2,-2.025,3.85,0.386491,1,1,64501.0,54962.7,1696,0.78001928,4.4961147,8.3506165,106.40138,4.93512,387.737,22.9254,-2.23746,32.6318,30.1226
1980-07-13 04:15:50,1,5.36667,-0.433333,6.7,0.253859,1,1,66558.6,60217.9,1696,0.78003109,4.4959621,8.3273926,106.4016,5.22002,394.76,2.99466,-25.0946,33.1482,31.5298
1980-07-13 04:18:32,1,5.7,-2.23333,5.9,0.169967,1,1,68629.4,58372.0,1696,0.78004885,4.4957333,8.3003845,106.40193,5.46615,399.043,28.4782,-10.9498,33.6599,31.0427
1980-07-13 04:21:14,1,6.0,0.4,6.36667,0.359011,1,1,90494.9,61158.3,1696,0.78006655,4.4955044,8.2772522,106.40225,5.66808,394.867,3.11584,-14.8411,38.6518,31.775
1980-07-13 04:23:56,1,4.125,-3.325,4.375,1.18348,1,1,60823.1,62465.4,1696,0.78007835,4.4953518,8.2540283,106.40247,6.03476,403.57,41.6317,-0.699153,31.6878,32.1128
1980-07-13 04:26:38,1,4.7,-3.9,3.5,0.173205,1,1,51749.1,58509.2,1696,0.78009611,4.4951239,8.2270203,106.4028,6.73809,395.589,37.7089,2.81025,29.2287,31.0792
1980-07-13 04:29:20,1,4.4,-4.45,3.2,0.259808,1,1,57812.8,50692.9,1696,0.78011382,4.494895,8.2039185,106.40312,6.46572,396.644,34.3979,3.33971,30.8937,28.9289
1980-07-13 04:32:02,1,5.95,-2.95,4.6,0.234521,1,1,53310.5,63130.3,1696,0.78013152,4.4946661,8.1769104,106.40346,5.52883,380.967,26.65,-4.43468,29.6663,32.2832
1980-07-13 04:34:44,1,6.05,-2.45,4.475,0.511737,1,1,73646.3,57949.5,1696,0.78014338,4.4945135,8.1536865,106.40367,5.98268,384.777,25.5129,-0.79337,34.8685,30.9302
1980-07-13 04:37:26,1,5.66667,-2.23333,5.63333,0.270801,1,1,44974.4,56613.7,1696,0.78016108,4.4942856,8.1305847,106.40401,5.43744,383.016,25.1964,-12.6068,27.2484,30.5716
1980-07-13 04:40:08,1,5.6,-2.26667,6.2,0.498888,1,1,60142.4,45782.8,1696,0.78017879,4.4940567,8.1035461,106.40433,5.60542,387.406,25.2047,-16.2506,31.51,27.4922
1980-07-13 04:42:50,1,4.13333,-3.83333,6.5,0.312694,1,1,57138.4,49960.7,1696,0.78019059,4.4939041,8.0803528,106.40456,5.36079,396.194,36.0409,-18.4848,30.713,28.7192
1980-07-13 04:45:32,1,4.86667,-2.46667,6.8,0.380058,1,1,64695.5,49838.9,1696,0.78020835,4.4936752,8.0572205,106.40488,5.89334,389.453,27.0506,-17.2916,32.681,28.6842
1980-07-13 04:48:14,1,3.225,-2.4,8.475,0.40466,1,1,66762.9,57729.6,1696,0.78022605,4.4934473,8.0302124,106.40521,6.5599,406.382,25.5386,-25.3733,33.199,30.8714
1980-07-13 04:50:56,1,3.6,-2.33333,8.0,0.349603,1,1,85929.0,56743.0,1696,0.78023785,4.4932947,8.0069885,106.40543,6.41773,398.784,21.0997,-20.1767,37.6641,30.6065
1980-07-13 04:53:38,1,2.8,-3.175,9.4,0.383243,1,1,79474.5,62042.7,1696,0.78025562,4.4930658,7.9838867,106.40575,7.69561,405.375,22.1414,-18.7245,36.2219,32.0039
1980-07-13 05:08:07,-1,nan,nan,nan,nan,1,3,nan,nan,1696,0.78034419,4.4919233,7.8526917,106.40738,nan,408.2,-3.02468,-14.4421,nan,nan
1980-07-13 05:09:30,1,1.00182,3.96,9.39091,1.74474,1,1,104115.0,56389.9,1696,0.78035009,4.491847,7.8371887,106.4075,7.07416,409.919,-13.2889,-14.4692,41.4586,30.5111
1980-07-13 05:10:49,1,-0.513433,-1.70746,10.8716,0.522341,1,1,46916.1,46133.1,1696,0.78035599,4.4917707,7.825592,106.40761,6.23306,418.688,12.374,-19.5908,27.8304,27.5971
1980-07-13 05:12:10,1,-0.181818,-0.518182,11.3242,1.45101,1,1,96405.3,29476.6,1696,0.78036779,4.4916182,7.8140869,106.40782,7.49866,416.942,11.2136,-20.556,39.8941,22.0596
1980-07-13 05:13:31,2,1.252,-0.232,5.58,0.239399,1,1,75592.4,27484.3,1696,0.78037369,4.4915419,7.8024597,106.40793,7.34323,399.852,0.19691,-14.111,35.3262,21.301
1980-07-13 05:14:52,2,4.8225,0.96,3.995,0.82155,1,1,23154.8,30169.9,1696,0.78037959,4.4914656,7.790863,106.40804,6.46286,376.322,-9.37688,0.863349,19.5514,22.3175
1980-07-13 05:16:13,2,-1.468,-0.422,5.85,0.226522,1,1,35705.1,27491.6,1696,0.7803914,4.4913139,7.7793579,106.40825,6.46832,422.125,4.49215,-13.6195,24.2786,21.3038
1980-07-13 05:18:55,2,3.694,5.778,1.132,0.374187,1,1,125795.0,60661.5,1696,0.7804032,4.4911613,7.7522278,106.40848,7.20171,398.086,-31.1631,-0.15498,45.5711,31.6457
1980-07-13 05:20:16,2,2.38,6.248,0.568,0.726135,1,1,77525.9,52643.4,1696,0.780415,4.4910088,7.7407227,106.40869,6.4167,404.403,-31.3577,-5.67158,35.7751,29.4802
1980-07-13 05:21:37,2,1.162,5.122,2.51,0.477192,1,1,110951.0,47752.8,1696,0.7804209,4.4909325,7.729126,106.4088,6.94592,417.127,-17.1543,-22.3882,42.798,28.0774
1980-07-13 05:22:58,2,3.75,5.8125,-0.855,0.119556,1,1,78102.4,52372.4,1696,0.7804268,4.4908562,7.7174988,106.40891,6.49168,395.49,-27.7071,3.04889,35.9079,29.4042
1980-07-13 05:24:19,2,-0.124,2.75,4.246,0.530064,1,1,72386.3,39057.6,1696,0.7804386,4.4907045,7.7020874,106.40912,6.54312,418.344,-6.98788,-14.7488,34.5689,25.3928
1980-07-13 05:25:40,2,-1.1075,3.095,4.205,0.717753,1,1,48571.4,41809.9,1696,0.7804445,4.4906282,7.6904907,106.40923,7.54885,425.79,-12.8656,0.608902,28.3171,26.2722
1980-07-13 05:27:01,2,-0.436,2.698,4.636,0.331035,1,1,45752.4,36654.2,1696,0.7804563,4.4904757,7.6789856,106.40945,6.67725,417.331,-0.65773,-10.6283,27.483,24.5991
1980-07-13 05:28:22,2,-0.825,3.2075,4.4575,0.152028,1,1,64319.6,33000.4,1696,0.78046221,4.4903994,7.6673889,106.40956,6.33278,417.795,-1.9086,-10.834,32.5859,23.3409
1980-07-13 05:29:43,2,0.262,3.19,4.564,0.126649,1,1,49039.4,40570.6,1696,0.78046811,4.4903231,7.6557617,106.40967,6.61708,414.838,-1.87626,-8.87289,28.4532,25.88
1980-07-13 05:31:04,2,-0.45,3.21333,4.51,0.139364,1,1,56158.3,30412.2,1696,0.78047991,4.4901714,7.6442566,106.40988,6.202,415.55,-1.15709,-12.1692,30.4484,22.4069
1980-07-13 05:32:33,2,-1.95,1.7475,4.83,0.125175,1,1,30415.4,28494.5,1696,0.78048581,4.4900951,7.6287537,106.40999,6.62373,421.718,0.497584,-14.0453,22.4081,21.6889
1980-07-13 05:33:46,2,-2.674,1.492,4.628,0.355325,1,1,53337.8,39067.7,1696,0.78049171,4.4900188,7.6171265,106.4101,5.89158,425.405,4.98451,-14.1008,29.674,25.3961
1980-07-13 05:35:07,2,-1.876,2.062,4.718,0.279814,1,1,25037.1,24720.7,1696,0.78050351,4.4898663,7.6056519,106.41032,6.95491,424.698,-1.14757,-15.472,20.3306,20.2017
1980-07-13 05:36:28,2,-1.7975,1.9,4.6475,0.351763,1,1,42134.6,37375.9,1696,0.78050941,4.48979,7.5940247,106.41043,5.72819,420.723,4.15016,-18.9546,26.3741,24.8401
1980-07-13 05:37:49,2,0.888,3.066,2.96,1.981,1,1,94357.0,78508.0,1696,0.78051531,4.4897137,7.582428,106.41054,7.17346,413.201,-6.58056,-12.7993,39.468,36.001
1980-07-13 05:39:10,2,1.1125,3.315,4.0025,0.412204,1,1,72386.5,33686.1,1696,0.78052711,4.489562,7.5670166,106.41075,5.98613,418.17,-3.9016,-17.6602,34.569,23.5821
1980-07-13 05:40:31,2,1.4175,2.6625,4.2225,0.240741,1,1,52687.7,43127.0,1696,0.78053302,4.4894857,7.5553894,106.41086,6.25999,412.736,-5.9,-16.105,29.4926,26.6829
1980-07-13 05:41:52,2,1.14,2.1125,4.6375,0.101181,1,1,37829.8,30883.5,1696,0.78053892,4.4894094,7.5437927,106.41096,5.73888,408.528,-7.088,-20.0507,24.9905,22.5799
1980-07-13 05:43:13,2,0.422,1.986,4.822,0.206533,1,1,50198.3,40504.1,1696,0.78055072,4.4892569,7.5322876,106.41119,6.35584,412.581,-0.773765,-17.1728,28.7874,25.8588
1980-07-13 05:44:34,2,0.08,2.3025,4.635,0.383854,1,1,51429.2,29831.4,1696,0.78055662,4.4891806,7.5206909,106.4113,5.23077,412.022,-3.13644,-20.9696,29.1382,22.1919
1980-07-13 05:45:55,2,0.75,2.64,4.294,1.01277,1,1,82313.4,33280.9,1696,0.78056252,4.4891043,7.5090637,106.41141,6.23072,403.215,-13.6317,-7.67565,36.8632,23.4399
1980-07-13 05:47:16,2,2.7575,2.355,4.06,0.239466,1,1,43749.8,43233.9,1696,0.78057432,4.4889526,7.4936523,106.41162,6.29663,402.3,-5.36901,-13.9604,26.8748,26.7159
1980-07-13 05:49:58,2,2.838,3.376,3.534,0.79716,1,1,50351.0,47494.6,1696,0.78058612,4.4888,7.4704285,106.41183,6.54136,400.171,-8.87669,-7.21625,28.8312,28.0014
1980-07-13 05:51:19,2,1.87,2.846,4.68,0.326227,1,1,39261.6,32282.4,1696,0.78059793,4.4886475,7.4589233,106.41205,6.85284,403.912,-6.0475,-11.0377,25.459,23.0856
1980-07-13 05:52:40,2,1.4925,1.7775,5.15,0.12485,1,1,34353.0,34283.3,1696,0.78060383,4.4885712,7.4473267,106.41217,6.72266,406.393,-9.34749,-17.7929,23.8144,23.7903
1980-07-13 05:54:00,2,2.092,1.104,5.206,0.434447,1,1,39434.2,41226.6,1696,0.78061563,4.4884195,7.4358215,106.41238,7.67762,400.806,6.49311,-12.0229,25.5149,26.0884
1980-07-13 05:55:22,2,2.205,0.3,5.215,0.23076,1,1,36192.0,39816.8,1696,0.78062153,4.4883432,7.4203186,106.41249,7.49562,401.277,7.29411,-17.0676,24.4435,25.6384
1980-07-13 05:56:43,2,2.584,-1.122,4.89,1.09818,1,1,33107.0,30346.5,1696,0.78062749,4.4882669,7.4086914,106.4126,5.33501,400.14,9.3045,-16.424,23.3786,22.3827
1980-07-13 05:58:04,-1,nan,nan,nan,nan,1,4,nan,nan,1696,0.78063923,4.4881144,7.3971863,106.41281,nan,nan,nan,nan,nan,nan
1980-07-13 05:59:25,2,4.62833,-6.4,0.716667,0.324555,1,1,62529.6,61323.2,1696,0.78064519,4.4880381,7.3855896,106.41292,7.39525,393.229,43.0045,-1.80432,32.1293,31.8178
1980-07-13 06:00:46,-1,nan,nan,nan,nan,1,4,nan,nan,1696,0.78065109,4.4879627,7.3739929,106.41304,nan,nan,nan,nan,nan,nan
1980-07-13 06:02:07,2,3.186,-3.54,4.116,0.540896,1,1,58135.5,54928.6,1696,0.78066283,4.4878101,7.3585815,106.41325,6.75509,396.38,30.5454,-21.5245,30.9798,30.1132
1980-07-13 06:03:28,2,3.8475,-4.6125,2.5325,0.8325,1,1,94617.3,66729.9,1696,0.78066874,4.4877338,7.3469543,106.41336,8.15529,391.2,36.7357,-8.93041,39.5224,33.1908
1980-07-13 06:04:49,2,3.024,-5.578,1.856,0.276449,1,1,67957.1,68748.8,1696,0.78067464,4.4876575,7.3353577,106.41347,7.2049,400.7,40.8745,-8.38599,33.4946,33.6892
1980-07-13 06:06:10,2,4.13,-3.695,2.7875,0.438969,1,1,56537.6,60524.7,1696,0.78068644,4.487505,7.3238525,106.41368,6.36763,390.441,23.6793,-17.0573,30.5511,31.61
1980-07-13 06:07:31,2,3.408,-5.074,1.286,0.908528,1,1,77652.4,58086.1,1696,0.78069234,4.4874296,7.3122253,106.41379,6.65833,397.025,47.3121,-1.48814,35.8043,30.9666
1980-07-13 06:08:52,-1,nan,nan,nan,nan,1,4,nan,nan,1696,0.78069824,4.4873533,7.3006287,106.41389,nan,nan,nan,nan,nan,nan
1980-07-13 06:10:13,2,1.73,-0.73,5.266,1.10832,1,1,31733.7,44998.7,1696,0.78071004,4.4872007,7.2852173,106.41411,5.46791,411.587,5.25606,-26.8436,22.8885,27.2557
1980-07-13 06:11:34,2,1.35,0.92,5.6925,0.35074,1,1,28068.7,36036.3,1696,0.78071594,4.4871244,7.2735901,106.41422,6.21004,408.543,13.7216,-26.5554,21.5263,24.3909
1980-07-13 06:12:55,2,1.746,-0.194,5.186,0.437712,1,1,35452.6,57422.1,1696,0.78072184,4.4870481,7.2619934,106.41434,6.6765,406.472,16.1659,-25.5501,24.1926,30.7891
1980-07-13 06:14:16,2,2.36,-2.3,5.495,0.398779,1,1,26080.0,29603.7,1696,0.78073359,4.4868965,7.2504883,106.41455,6.19199,409.046,22.9074,-23.8546,20.7497,22.107
1980-07-13 06:15:37,2,2.068,-3.592,4.52,0.573613,1,1,43568.8,43581.1,1696,0.78073949,4.4868202,7.2388916,106.41466,6.62688,408.897,24.4026,-23.5794,26.8192,26.823
1980-07-13 06:16:58,2,2.725,-2.95,4.3,0.894944,1,1,59914.1,51056.7,1696,0.78074539,4.4867439,7.2272644,106.41476,5.96631,405.293,24.4455,-24.5823,31.4501,29.0325
1980-07-13 06:21:01,2,5.578,-2.794,2.148,0.61111,1,1,49849.5,63093.2,1696,0.78077489,4.4863634,7.1887512,106.4153,6.49556,384.528,27.9021,-11.3491,28.6872,32.2737
1980-07-13 06:22:22,2,6.9775,-2.6875,-0.52,0.464152,1,1,53617.6,60525.1,1696,0.78078079,4.4862871,7.177124,106.41541,6.87759,376.091,20.649,5.07824,29.7517,31.6101
1980-07-13 06:23:43,2,5.18,-4.204,1.882,0.839929,1,1,48778.1,58926.6,1696,0.78078669,4.4862108,7.1655273,106.41551,6.38839,388.137,38.9586,-3.26656,28.3773,31.1899
1980-07-13 06:25:04,2,5.574,-5.3,0.11,0.85254,1,1,74035.4,45945.3,1696,0.78079844,4.4860582,7.150116,106.41574,5.75847,382.373,37.7769,13.1659,34.9605,27.5409
1980-07-13 06:26:25,2,5.596,-4.322,1.874,0.661229,1,1,45719.9,59249.7,1696,0.78080434,4.4859819,7.1385193,106.41585,6.57393,387.392,30.4796,-13.0167,27.4733,31.2753
1980-07-13 06:27:46,2,5.7275,-4.3775,1.875,0.286029,1,1,47525.0,63527.0,1696,0.78081024,4.4859066,7.1268921,106.41595,6.71463,389.078,33.6127,-12.6742,28.0104,32.3845
1980-07-13 06:29:07,2,6.098,-4.444,1.164,0.19551,1,1,40834.6,56165.4,1696,0.78082204,4.485754,7.115387,106.41617,6.54898,385.867,36.8286,-4.82114,25.964,30.4504
1980-07-13 06:30:28,2,6.4325,-4.3975,0.7525,0.0959492,1,1,43605.5,57646.6,1696,0.78082794,4.4856777,7.1037903,106.41628,6.05154,383.914,34.5257,0.103987,26.8305,30.8493
1980-07-13 06:31:49,2,6.594,-3.56,1.562,0.612895,1,1,39961.8,61123.3,1696,0.78083384,4.4856014,7.0921631,106.41638,7.11606,381.647,31.5361,-4.68291,25.685,31.7659
1980-07-13 06:33:10,2,5.715,-5.5025,0.705,0.911026,1,1,44380.8,55082.6,1696,0.78084564,4.4854488,7.0767517,106.4166,5.90282,386.758,32.4082,-3.03193,27.068,30.1554
1980-07-13 06:34:31,2,5.34167,-5.82833,0.935,0.233851,1,1,47947.5,56980.0,1696,0.78085154,4.4853735,7.065155,106.4167,6.63973,393.939,42.0713,-1.79688,28.1346,30.6704
1980-07-13 06:35:52,-1,nan,nan,nan,nan,1,4,nan,nan,1696,0.78085744,4.4852972,7.0535278,106.41681,nan,nan,nan,nan,nan,nan
1980-07-13 06:37:13,2,6.186,-4.994,0.936,0.203941,1,1,42519.6,64564.0,1696,0.78086919,4.4851446,7.0420532,106.41704,6.84535,386.083,36.1756,-3.21648,26.4943,32.6477
1980-07-13 06:38:34,2,6.0125,-5.49,0.305,0.0994673,1,1,44686.3,51249.9,1696,0.78087509,4.4850683,7.030426,106.41714,6.04914,385.676,33.8253,-1.24915,27.1609,29.0874
1980-07-13 06:39:55,2,6.41,-3.946,1.65,0.341503,1,1,41213.1,59610.8,1696,0.78088099,4.484992,7.0188293,106.41725,6.69766,381.945,33.7862,-7.38478,26.0841,31.3704
1980-07-13 06:41:16,2,6.2025,-4.7675,0.555,1.75434,1,1,51149.1,50746.1,1696,0.78089279,4.4848404,7.003418,106.41747,6.24473,379.846,34.5021,0.0515866,29.0588,28.944
1980-07-13 06:42:37,2,6.284,-2.81,2.5,0.491186,1,1,44571.0,58996.0,1696,0.78089869,4.4847641,6.9917908,106.41757,6.41101,389.326,28.2016,-13.6727,27.1259,31.2082
1980-07-13 06:43:58,2,6.41,-3.7325,1.6325,0.287554,1,1,41206.8,60156.0,1696,0.78090459,4.4846878,6.9801941,106.41768,6.92013,383.993,28.076,-5.94838,26.0821,31.5136
1980-07-13 06:45:19,2,6.15,-3.902,1.918,0.420276,1,1,43392.9,65660.9,1696,0.78091639,4.4845352,6.968689,106.41789,7.4947,386.945,31.6238,-11.1993,26.765,32.9239